Saint David, ME

5:42 AM EST on February 22, 2017 (GMT -0500)
Northern Aroostook Regional

Weather History for KFVE - March, 2013

Change the Weather History Date:

Sunday, March 17, 2013

  Actual Average Record
Temperature  
Mean Temperature 9 °F 24 °F  
Max Temperature 13 °F 32 °F 50 °F (2012)
Min Temperature 4 °F 15 °F -7 °F (2014)
Degree Days  
Heating Degree Days 56    
Month to date heating degree days 619  
Since 1 July heating degree days 7109  
Cooling Degree Days 0    
Month to date cooling degree days 0  
Year to date cooling degree days 0  
Moisture  
Dew Point -1 °F    
Average Humidity 64    
Maximum Humidity 79    
Minimum Humidity 42    
Precipitation  
Precipitation T in 0.04 in 1.30 in (2007)
Month to date precipitation 0.40 0.61  
Year to date precipitation 2.62 3.18  
Sea Level Pressure  
Sea Level Pressure 29.87 in    
Wind  
Wind Speed 14 mph (NW)    
Max Wind Speed 30 mph    
Max Gust Speed 37 mph    
Visibility 6 miles    
Events Snow    
T = Trace of Precipitation, MM = Missing Value Source: NWS Daily Summary

Daily Weather History Graph

Daily Weather History Graph

Search for Another Location

Airport or City:

Trip Planner

Search our weather history database for the weather conditions in past years. The results will help you decide how hot, cold, wet, or windy it might be!

Date:

Astronomy

Mar. 17, 2013 Rise Set
Actual Time 6:41 AM EDT 6:42 PM EDT
Civil Twilight 6:11 AM EDT 7:12 PM EDT
Nautical Twilight 5:35 AM EDT 7:48 PM EDT
Astronomical Twilight 4:59 AM EDT 8:25 PM EDT
Moon 9:29 AM EDT (3/17) 12:08 AM EDT (3/17)
Length of Visible Light 13h 01m
Length of Day
12h 00m
Waxing Crescent, 31% of the Moon is Illuminated
Mar 17
Waxing Crescent
Mar 19
First Quarter
Mar 27
Full
Apr 3
Last Quarter
Apr 10
New

Hourly Weather History & Observations

Time (EDT) Temp. Windchill Dew Point Humidity Pressure Visibility Wind Dir Wind Speed Gust Speed Precip Events Conditions
12:53 AM 9.0 °F 0.6 °F -0.0 °F 67% 29.82 in 10.0 mi NW 4.6 mph - N/A   Clear
1:53 AM 9.0 °F -0.9 °F -0.9 °F 64% 29.83 in 10.0 mi WNW 5.8 mph - N/A   Clear
2:53 AM 8.1 °F -2.0 °F -0.0 °F 70% 29.82 in 10.0 mi NW 5.8 mph - N/A   Clear
3:53 AM 8.1 °F -4.3 °F -0.9 °F 67% 29.82 in 10.0 mi WNW 8.1 mph - N/A   Clear
4:53 AM 7.0 °F -7.5 °F -0.9 °F 70% 29.83 in 10.0 mi WNW 10.4 mph - N/A   Mostly Cloudy
5:53 AM 6.1 °F -4.3 °F -0.0 °F 76% 29.83 in 10.0 mi West 5.8 mph - N/A   Overcast
6:53 AM 7.0 °F 0.1 °F -0.9 °F 70% 29.83 in 10.0 mi NW 3.5 mph - N/A   Overcast
7:53 AM 6.1 °F -0.9 °F -0.0 °F 76% 29.83 in 10.0 mi SW 3.5 mph - N/A   Overcast
8:53 AM 9.0 °F -0.9 °F 1.9 °F 73% 29.83 in 2.5 mi NW 5.8 mph - 0.00 in Snow Light Snow
9:02 AM 8.6 °F -1.3 °F 1.4 °F 73% 29.78 in 1.5 mi NW 5.8 mph - 0.00 in Snow Light Snow
9:10 AM 8.6 °F -1.3 °F 3.2 °F 79% 29.77 in 1.0 mi NW 5.8 mph - 0.00 in Snow Light Snow
9:18 AM 8.6 °F 2.0 °F 3.2 °F 79% 29.77 in 1.8 mi NNW 3.5 mph - 0.00 in Snow Light Snow
9:22 AM 8.6 °F 2.0 °F 3.2 °F 79% 29.77 in 1.2 mi North 3.5 mph - 0.00 in Snow Light Snow
9:50 AM 10.4 °F -0.4 °F 3.2 °F 73% 29.76 in 1.8 mi NW 6.9 mph - 0.00 in Snow Light Snow
9:53 AM 10.0 °F 0.4 °F 3.9 °F 76% 29.82 in 2.0 mi NW 5.8 mph - 0.00 in Snow Light Snow
10:00 AM 10.4 °F 0.8 °F 3.2 °F 73% 29.77 in 2.0 mi NNW 5.8 mph - 0.00 in Snow Light Snow
10:08 AM 10.4 °F 2.2 °F 3.2 °F 73% 29.76 in 1.5 mi NW 4.6 mph - 0.00 in Snow Light Snow
10:13 AM 10.4 °F 0.8 °F 3.2 °F 73% 29.77 in 1.0 mi NNW 5.8 mph - 0.00 in Snow Light Snow
10:27 AM 10.4 °F 0.8 °F 5.0 °F 79% 29.77 in 0.8 mi WNW 5.8 mph - 0.00 in Snow Light Snow
10:35 AM 10.4 °F -3.3 °F 5.0 °F 79% 29.77 in 0.5 mi NW 10.4 mph - 0.00 in Snow Snow
10:53 AM 10.9 °F -2.6 °F 5.0 °F 77% 29.84 in 0.5 mi NW 10.4 mph 18.4 mph 0.00 in Snow Snow
11:07 AM 10.4 °F -4.8 °F 3.2 °F 73% 29.79 in 1.2 mi NNW 12.7 mph 18.4 mph 0.00 in Snow Light Snow
11:34 AM 10.4 °F -4.1 °F 3.2 °F 73% 29.80 in 1.8 mi NW 11.5 mph - 0.00 in Snow Light Snow
11:42 AM 10.4 °F -6.0 °F 3.2 °F 73% 29.80 in 1.2 mi NW 15.0 mph 20.7 mph 0.00 in Snow Light Snow
11:51 AM 10.4 °F -6.0 °F 3.2 °F 73% 29.80 in 0.8 mi NW 15.0 mph - 0.00 in Snow Light Snow
11:53 AM 10.9 °F -5.4 °F 3.0 °F 70% 29.86 in 0.8 mi NW 15.0 mph - 0.00 in Snow Light Snow
11:57 AM 10.4 °F -6.6 °F 1.4 °F 67% 29.80 in 1.8 mi NNW 16.1 mph - 0.00 in Snow Light Snow
11:59 AM 10.4 °F -6.6 °F 1.4 °F 67% 29.80 in 3.0 mi NNW 16.1 mph - 0.00 in Snow Light Snow
12:22 PM 12.2 °F -5.3 °F -0.4 °F 57% 29.81 in 10.0 mi NNW 18.4 mph 24.2 mph 0.00 in   Overcast
12:53 PM 12.0 °F -6.5 °F -0.9 °F 56% 29.88 in 10.0 mi WNW 20.7 mph 25.3 mph 0.00 in   Overcast
1:17 PM 10.4 °F -5.4 °F -0.4 °F 62% 29.83 in 2.5 mi NW 13.8 mph 27.6 mph 0.00 in Snow Light Snow
1:28 PM 10.4 °F -9.5 °F -2.2 °F 57% 29.84 in 6.0 mi NW 23.0 mph 28.8 mph 0.00 in Snow Blowing Snow
1:40 PM 10.4 °F -7.7 °F -4.0 °F 52% 29.84 in 10.0 mi NW 18.4 mph 31.1 mph 0.00 in   Overcast
1:53 PM 10.9 °F -7.9 °F -6.0 °F 47% 29.91 in 10.0 mi NW 20.7 mph 31.1 mph 0.00 in   Mostly Cloudy
2:53 PM 10.9 °F -7.5 °F -6.0 °F 47% 29.93 in 10.0 mi NW 19.6 mph 28.8 mph N/A   Overcast
3:53 PM 12.0 °F -6.5 °F -7.1 °F 42% 29.94 in 10.0 mi WNW 20.7 mph 32.2 mph N/A   Overcast
4:53 PM 10.0 °F -10.4 °F -9.0 °F 42% 29.98 in 10.0 mi NW 24.2 mph 35.7 mph N/A   Mostly Cloudy
5:53 PM 9.0 °F -9.0 °F -9.9 °F 42% 30.01 in 10.0 mi NW 17.3 mph 25.3 mph N/A   Mostly Cloudy
6:53 PM 7.0 °F -13.6 °F -9.9 °F 46% 30.04 in 10.0 mi NW 21.9 mph 34.5 mph N/A   Clear
7:53 PM 6.1 °F -12.8 °F -9.9 °F 48% 30.10 in 10.0 mi NW 17.3 mph 26.5 mph N/A   Clear
8:53 PM 5.0 °F -14.2 °F -11.9 °F 46% 30.12 in 10.0 mi NW 17.3 mph 27.6 mph N/A   Clear
9:53 PM 5.0 °F -14.7 °F -11.9 °F 46% 30.14 in 10.0 mi WNW 18.4 mph 32.2 mph N/A   Clear
10:53 PM 3.9 °F -17.6 °F -9.9 °F 53% 30.16 in 10.0 mi NW 21.9 mph 31.1 mph N/A   Mostly Cloudy
11:53 PM 3.9 °F -15.6 °F -11.9 °F 48% 30.17 in 10.0 mi NW 17.3 mph 25.3 mph N/A   Clear